#timestamp,LO_Frequency,Hit,StdDev 
1611511215.4,286047013.5,N
1611511235.2,286047013.8,N
1611511255.1,286047012.4,N
1611511256.0,286047012.4,N
1611511275.8,286047011.5,N
1611511295.6,286047011.9,N
1611511315.5,286047012.7,Y
1611511335.3,286047000.8,P
1611511355.1,286046996.5,N
1611511375.9,286046997.6,N
1611511395.7,286046996.9,N
1611511415.6,286046995.9,N
1611511435.4,286046993.6,N
1611511455.2,286047001.1,N
1611511475.1,286047000.3,N
1611511476.0,286047000.3,N
1611511495.8,286047002.1,N
1611511515.7,286047000.3,N
1611511535.5,286046999.7,N
1611511555.3,286047003.3,N
1611511575.2,286047004.9,N
1611511595.0,286047008.7,N
1611511595.9,286047008.7,N
1611511615.8,286047010.3,N
1611511635.6,286047011.8,N
1611511655.4,286047011.8,N
1611511675.3,286047012.5,N
1611511695.1,286047012.7,N
1611511715.8,286047011.0,N
1611511735.7,286047012.6,N
1611511755.5,286047015.4,N
1611511775.4,286047017.2,N
1611511795.2,286047014.8,N
1611511815.0,286047017.7,N
1611511815.9,286047017.7,N
1611511835.8,286047021.8,N
1611511855.6,286047020.3,N
1611511875.5,286047021.7,N
1611511895.3,286047020.4,N
1611511915.1,286047015.8,N
1611511935.9,286047015.0,N
1611511955.7,286047013.5,N
1611511975.5,286047011.7,N
1611511995.4,286047012.7,N
1611512015.2,286047012.9,N
1611512035.1,286047012.1,N
1611512036.0,286047012.1,N
1611512055.8,286047008.5,N
1611512075.6,286047006.3,N
1611512095.5,286047008.1,N
1611512115.3,286047012.1,N
1611512135.2,286047012.2,Y
1611512155.9,286046999.2,P
1611512175.7,286046999.9,N
1611512195.6,286047000.8,N
1611512215.4,286046996.8,N
1611512235.3,286046999.6,N
1611512255.1,286046996.7,N
1611512256.0,286046996.7,N
1611512275.8,286047000.6,N
1611512295.7,286047002.7,N
1611512315.5,286047000.0,N
1611512335.3,286047000.7,N
1611512355.2,286047000.3,N
1611512375.0,286046998.5,N
1611512375.9,286046998.5,N
1611512395.8,286047001.8,N
1611512415.6,286046999.7,N
1611512435.4,286047002.6,N
1611512455.3,286047001.0,N
1611512475.1,286046999.2,N
1611512495.9,286046999.1,N
1611512515.7,286046998.6,N
1611512535.5,286047000.2,N
1611512555.4,286047000.4,N
1611512575.2,286047002.6,N
1611512595.0,286047003.9,N
1611512596.0,286047003.9,N
1611512615.8,286046998.2,N
1611512635.6,286046999.2,N
1611512655.5,286046996.5,N
1611512675.3,286046996.8,N
1611512695.1,286046998.8,N
1611512715.9,286046998.2,N
1611512735.7,286047000.4,N
1611512755.6,286047000.0,N
1611512775.4,286046997.4,N
1611512795.2,286046995.1,N
1611512815.1,286046997.8,N
1611512816.0,286046997.8,N
1611512835.8,286046999.0,N
1611512855.7,286046997.0,N
1611512875.5,286046998.9,N
1611512895.3,286046996.5,N
1611512915.2,286046999.1,N
1611512935.0,286046999.1,N
1611512935.9,286046999.1,N
1611512955.7,286046996.5,N
1611512975.6,286046999.3,N
1611512995.4,286046995.9,N
1611513015.3,286046996.4,N
1611513035.1,286046994.3,N
1611513055.8,286046992.3,Y
1611513075.7,286046995.0,P
1611513095.5,286046995.0,N
1611513115.4,286046995.5,N
1611513135.2,286046999.4,N
1611513155.0,286046996.8,N
1611513155.9,286046996.8,N
1611513175.8,286046996.8,N
1611513195.6,286046993.9,Y
1611513215.5,286046995.9,P
1611513235.3,286046994.7,P
1611513255.1,286046991.9,P
1611513275.9,286046997.0,N
1611513295.7,286046997.7,N
1611513315.5,286046995.3,N
1611513335.4,286046995.8,N
1611513355.2,286046994.2,Y
1611513375.1,286046996.9,P
1611513376.0,286046996.9,P
1611513395.8,286047000.1,N
1611513415.6,286047001.8,N
1611513435.5,286047003.7,N
1611513455.3,286047003.7,N
1611513475.2,286047003.5,N
1611513495.9,286047003.4,N
1611513515.7,286047005.6,N
1611513535.6,286047003.9,N
1611513555.4,286047004.4,N
1611513575.2,286047003.6,N
1611513595.1,286047004.3,N
1611513596.0,286047004.3,N
1611513615.8,286047004.1,N
1611513635.7,286047003.4,N
1611513655.5,286047010.5,Y
1611513675.3,286047007.7,P
1611513695.2,286047009.7,P
1611513715.0,286047008.9,N
1611513715.9,286047008.9,Y
1611513735.8,286046998.4,P
1611513755.6,286047000.2,N
1611513775.4,286047001.9,N
1611513795.3,286047005.1,N
1611513815.1,286047008.7,N
1611513835.8,286047008.7,N
1611513855.7,286047009.2,N
1611513875.5,286047005.5,N
1611513895.4,286047009.1,N
1611513915.2,286047007.8,N
1611513935.0,286047006.4,N
1611513935.9,286047006.4,N
1611513955.8,286047006.7,N
1611513975.6,286046999.7,N
1611513995.5,286046999.4,N
1611514015.3,286047001.5,N
1611514035.1,286047004.0,N
1611514055.9,286047005.7,N
1611514075.7,286047004.7,N
1611514095.5,286047005.5,N
1611514115.4,286047000.4,N
1611514135.2,286047005.7,N
1611514155.1,286047010.8,Y
1611514156.0,286047010.8,P
1611514175.8,286047007.3,N
1611514195.6,286047010.0,P
1611514215.5,286047006.4,N
1611514235.3,286047003.1,N
1611514255.2,286047003.1,N
1611514275.9,286047007.5,N
1611514295.7,286047007.5,N
1611514315.6,286047004.6,N
1611514335.4,286047005.5,N
1611514355.3,286047005.2,N
1611514375.1,286047004.5,N
1611514376.0,286047004.5,N
1611514395.8,286047003.2,N
1611514415.7,286047003.0,N
1611514435.5,286047003.5,N
1611514455.3,286047005.4,N
1611514475.2,286047003.3,N
1611514495.0,286047004.7,N
1611514495.9,286047004.7,N
1611514515.8,286047009.0,Y
1611514535.6,286047004.1,P
1611514555.4,286047002.9,P
1611514575.3,286047006.3,P
1611514595.1,286047005.7,Y
1611514615.9,286046993.8,P
1611514635.7,286046992.9,N
1611514655.5,286046994.7,N
1611514675.4,286046991.9,N
1611514695.2,286046987.7,N
1611514715.1,286046988.8,N
1611514716.0,286046988.8,N
1611514735.8,286046988.6,N
1611514755.6,286046987.3,N
1611514775.5,286046989.5,N
1611514795.3,286046990.6,N
